Showing default

COSMOS 1629, 15574

Orbit data source: Space-Track

COSMOS 1629, 15574 is a payload satellite owned by PVO (CIS) in GEO that was launched on Thu, 21 Feb 1985 UTC via a PROTON-K/DM launch vehicle from the Tyuratam Missile And Space Complex (TTMTR). Payload-class satellites include a variety of spacecraft equipped with specific instruments for various scientific and technological missions. These include communications satellites like Starlink; space stations such as the ISS; scientific satellites like the Hubble; Earth observation satellites from companies like Planet Labs, Umbra, and HawkEye 360; GPS; miniature CubeSats for education and research; and military/defense satellites.

Loading next visibility...
Identifier
15574, 1985-016A
Orbit
GEO
Country
Flag of CISCIS
Related business
Manufacturer
NPOL/KOMET
Mission
Spacecraft
Bus & Motor
OKO, Unknown motor
Mass
~1,250 kg wet, ~1,150 kg dry
Launch date (UTC)
1985-02-21 (41 years ago)
Launch vehicle
PROTON-K/DM
Launch site
Tyuratam Missile And Space Complex (TTMTR)
Object type
Payload
Rocket body
Debris
Shape & HBR
Unknown
Radar Cross Section
Large (>1 m²)

Expand to show TLE details & history
Last TLE update: 10 hours ago

TLE from 10 hours ago
0 COSMOS 1629
1 15574U 85016A   25299.29849589  .00000106  00000-0  00000+0 0  9999
2 15574   9.5575 316.0056 0008282 262.4158 117.9148  1.00225814148113
Epoch: 2025-10-26T07:09Z
TLE epoch observation values (Epoch: 2025-10-26T07:09:50.044Z)
Latitude
3.33461°
Longitude
-166.2452°
Altitude
35,815.094 km
Speed
3.073 km/s
True Right ascension
22h 24m 31s
True Declination
3° 19' 52"
Sunlit
Object was in daylight at epoch
Visualization orbit readout
Latitude
Unknown
Longitude
Unknown
Altitude
Unknown
Speed
Unknown
Apparent Right ascension
Unknown
Apparent Declination
Unknown
Sunlit
N/A
Visualization observer readout
Local Sidereal Time
12:51:08
Azimuth
Unknown
Elevation
Unknown
Doppler factor
Unknown
Orbital elements
Apogee altitude
35,835.446 km
Perigee altitude
35,765.582 km
Semi-major axis
42,178.651 km
Eccentricity
0.00083
Inclination
9.5575°
RAAN
316.0056°
Arg. of periapsis
262.4158°
True anomaly
117.99862°
Mean anomaly
117.9148°
Eccentric anomaly
117.95671°
Mean motion
0.25056 °/min
Orbital period
1,436.81 mins
BSTAR
0
Loading maneuver chart data...
Computing Atmospheric mass density...
Loading historical data...
Loading historical data...
Loading historical data...
Loading historical data...
Loading historical data...
Loading historical data...
Loading historical data...

Documentation

Showing up to 5 results
|